Погода в Грахово

Россия / Удмуртская Республика     56°02′48″N   51°57′57″E
темп.,
°C
ветер,
м/с
пор.,
м/с
влажн.,
%
обл.,
%
осадки,
мм/ч
давл.,
гПа
погр.,
м
16 апреля, пт
пт1601:00+11ссв22651 0.0 101924
04:00+8св61196100 0.0 1021342
07:00+6св6128397 0.0 1023440
10:00+7св61076100 0.0 1024540
13:00+11св785677 0.0 1025825
16:00+12всв684876 0.0 1025962
19:00+10св495831 0.0 1025280
22:00+6св612587 0.0 1026313
17 апреля, сб
сб1701:00+4св511640 0.0 1027254
04:00+2св410710 0.0 1028218
07:00+3св410680 0.0 1028287
10:00+7св67461 0.0 1028629
13:00+10св56330 0.0 10271084
16:00+12св45340 0.0 10261255
19:00+9св22485 0.0 102627
22:00+5ссв34650 0.0 102654
18 апреля, вс
вс1801:00+4ссв34690 0.0 102647
04:00+3с23773 0.0 102624
07:00+4с26764 0.0 1026176
10:00+9св45565 0.0 1026881
13:00+11св564681 0.0 10261656
16:00+8св775799 0.0 10281081
19:00+6всв61046100 0.0 1028739
22:00+4св61251100 0.0 1029452
19 апреля, пн
пн1901:00+3всв7135299 0.0 1030587
04:000всв61356100 0.0 1032503
07:000всв71355100 0.0 1033577
10:00+4в911385 0.0 10341240
13:00+6в810300 0.0 10341568
16:00+7в79280 0.0 10341646
19:00+5в610360 0.0 1034475
22:00+2в513450 0.0 1035352
20 апреля, вт
вт2001:000в411520 0.0 1036244
04:00−1в49570 0.0 1036195
07:00+1вюв49560 0.0 1037298
10:00+5вюв68330 0.0 1036985
13:00+8юв67290 0.0 10351256
16:00+9вюв67270 0.0 10331254
19:00+6вюв474124 0.0 1032139
22:00+3вюв4952100 0.0 1032155